Content
SEND FEEDBACK

Daily
Averages
Monthly
Summary
Federated States of Micronesia

NGOOF, FEDERATED STATES OF MICRONESIA


Home > Oceania > Federated States of Micronesia
Elevation: 10 meters     Latitude: 09 29N     Longitude: 138 05E

WEATHER
 
SELECT A DAY
Number of Records: 163,451;   Date Range: 7/1/96 - 7/8/14
 
SHARE

PRINT THIS DATA

[ ← Previous Day ]
WEATHER ALMANAC - 3 JANUARY, 2013
[ Next Day → ]
[ °F ]   °C
Weather ElementAverageHighLow
Temperature27.8 °C30.8 °C (11:54 am)26 °C (1:38 pm)
Dewpoint24.8 °C26.1 °C (2:59 pm)23.6 °C (11:55 pm)
Humidity83.2 %90 % (6:52 pm)73 % (11:54 am)
Barometer1009.8 hPa1011.5 hPa (8:55 am)1008.1 hPa (3:54 pm)
Wind Speed17.4 km/h27.8 km/h (12:59 pm)
Wind Gust46.3 km/h (12:59 pm)
Weather ElementAverage
Visibility19 km
Wind DirectionENE (82.9 °)

Weather ElementTotal
Precipitation---
Cooling Degree Days10.1 (Base 18.3)
Growing Degree Days18.4 (Base 10)
Averaged from 28 records on 3 January, 2013
WEATHER CONDITIONS BREAKOUT
WIND DIRECTION BREAKOUT
WEATHER BY HOUR - 3 JANUARY, 2013
[ °F ]   °C
Local TimeTemperatureDewpointHumidityBarometerVisibilityWind DirectionWind SpeedGust SpeedPrecipitationEventsConditions
1:53 AM27.5 °C25 °C86 %1010.5 hPa19.3 kmENE (70°)18.5 km/hMostly Cloudy
2:59 AM27.4 °C24.9 °C86 %1010.2 hPa19.3 kmEast (80°)18.5 km/hMostly Cloudy
3:59 AM27.2 °C24.4 °C85 %1009.8 hPa19.3 kmEast (90°)18.5 km/hMostly Cloudy
4:00 AM27.2 °C24.4 °C80 %1009.8 hPa19.3 kmEast (90°)18.5 km/hPartly Cloudy
4:59 AM27.1 °C24.3 °C85 %1010.2 hPa19.3 kmEast (90°)18.5 km/hMostly Cloudy
5:55 AM27.2 °C24.3 °C84 %1010.2 hPa19.3 kmEast (90°)14.8 km/hOvercast
6:54 AM27 °C24.2 °C85 %1010.5 hPa19.3 kmEast (80°)18.5 km/hOvercast
7:54 AM27.3 °C24.5 °C85 %1010.8 hPa19.3 kmEast (90°)13 km/hOvercast
8:55 AM28.3 °C25.2 °C83 %1011.5 hPa19.3 kmEast (90°)13 km/hOvercast
9:51 AM29 °C25.3 °C80 %1011.5 hPa19.3 kmEast (90°)16.7 km/hOvercast
10:00 AM28.9 °C25.6 °C76 %1011.5 hPa19.3 kmEast (90°)16.7 km/hOvercast
10:54 AM30 °C25.3 °C76 %1010.8 hPa19.3 kmEast (90°)18.5 km/hOvercast
11:54 AM30.8 °C25.5 °C73 %1010.2 hPa19.3 kmEast (80°)18.5 km/hOvercast
12:59 PM29.9 °C24.8 °C74 %1010.2 hPa8 kmEast (90°)27.8 km/h46.3 km/hRainLight Rain Showers
1:38 PM26 °C24 °C89 %1008.8 hPa19.3 kmEast (80°)14.8 km/hRainLight Rain Showers
1:59 PM27.1 °C25.1 °C89 %1008.5 hPa19.3 kmENE (70°)16.7 km/hOvercast
2:59 PM28.7 °C26.1 °C86 %1008.5 hPa19.3 kmEast (90°)13 km/hOvercast
3:54 PM28.4 °C25.2 °C83 %1008.1 hPa19.3 kmEast (80°)16.7 km/hOvercast
4:00 PM28.3 °C25 °C79 %1008.1 hPa19.3 kmEast (80°)16.7 km/hPartly Cloudy
4:54 PM28.7 °C25.6 °C83 %1008.1 hPa19.3 kmEast (90°)18.5 km/hOvercast
5:53 PM26.4 °C24.4 °C89 %1008.5 hPa19.3 kmEast (80°)14.8 km/hOvercast
6:52 PM26.8 °C25 °C90 %1008.5 hPa19.3 kmENE (60°)22.2 km/hOvercast
7:52 PM27 °C24.6 °C87 %1009.1 hPa19.3 kmEast (100°)22.2 km/hOvercast
8:52 PM27.3 °C24.8 °C86 %1009.5 hPa19.3 kmESE (110°)14.8 km/hOvercast
9:50 PM27.3 °C24.6 °C85 %1009.8 hPa19.3 kmENE (70°)14.8 km/hOvercast
10:00 PM27.2 °C24.4 °C82 %1009.8 hPa19.3 kmENE (70°)14.8 km/hPartly Cloudy
10:50 PM27.3 °C24.1 °C83 %1009.8 hPa19.3 kmENE (60°)14.8 km/hOvercast
11:55 PM27.2 °C23.6 °C81 %1009.5 hPa19.3 kmENE (70°)22.2 km/hOvercast
Hourly data recorded from PTYA, located 0 kilometers away from Ngoof, Federated States of Micronesia







STORIES FROM OUR PARTNERS